| time (UTC) | temp C | wind direction | speed KPH | gust KPH | rain 1hr cm | rain 24hr cm | rain mn cm | humidity % | barometer mb |
| 20260508042706 | 16 | 90 | 0.0 | 0.0 | 0.00 | 0.03 | 0.00 | 84 | 1016.3 |
| 20260508042159 | 16 | 90 | 0.0 | 0.0 | 0.00 | 0.03 | 0.00 | 84 | 1016.2 |
| 20260508041657 | 16 | 90 | 0.0 | 0.0 | 0.00 | 0.03 | 0.00 | 84 | 1016.2 |
| 20260508041157 | 16 | 90 | 0.0 | 0.0 | 0.00 | 0.03 | 0.00 | 85 | 1016.1 |
| 20260508040656 | 16 | 90 | 0.0 | 1.6 | 0.00 | 0.03 | 0.00 | 85 | 1016.2 |
| 20260508040155 | 16 | 90 | 0.0 | 3.2 | 0.00 | 0.03 | 0.00 | 84 | 1016.2 |
| 20260508035656 | 16 | 90 | 1.6 | 4.8 | 0.00 | 0.03 | 0.00 | 84 | 1016.2 |
| 20260508035154 | 16 | 90 | 1.6 | 4.8 | 0.00 | 0.03 | 0.00 | 84 | 1016.2 |
| 20260508034651 | 16 | 90 | 0.0 | 3.2 | 0.00 | 0.03 | 0.00 | 84 | 1016.3 |
| 20260508034151 | 16 | 90 | 0.0 | 3.2 | 0.00 | 0.03 | 0.00 | 84 | 1016.4 |
| 20260508033651 | 16 | 90 | 0.0 | 3.2 | 0.00 | 0.03 | 0.00 | 84 | 1016.4 |
| 20260508033150 | 16 | 90 | 0.0 | 1.6 | 0.00 | 0.03 | 0.00 | 84 | 1016.5 |
| 20260508032647 | 15 | 90 | 0.0 | 1.6 | 0.00 | 0.03 | 0.00 | 84 | 1016.5 |
| 20260508032148 | 15 | 90 | 0.0 | 1.6 | 0.00 | 0.03 | 0.00 | 84 | 1016.6 |
| 20260508031647 | 15 | 90 | 0.0 | 1.6 | 0.00 | 0.03 | 0.00 | 84 | 1016.5 |
| 20260508031145 | 15 | 90 | 0.0 | 1.6 | 0.00 | 0.03 | 0.00 | 84 | 1016.4 |
| 20260508030902 | 15 | 90 | 0.0 | 1.6 | 0.00 | 0.03 | 0.00 | 84 | 1016.3 |
| 20260508030144 | 15 | 90 | 0.0 | 1.6 | 0.00 | 0.03 | 0.00 | 84 | 1016.3 |
| 20260508025644 | 15 | 90 | 0.0 | 1.6 | 0.00 | 0.03 | 0.00 | 84 | 1016.3 |
| 20260508025143 | 15 | 90 | 0.0 | 1.6 | 0.00 | 0.03 | 0.00 | 84 | 1016.3 |
| 20260508024642 | 15 | 90 | 0.0 | 0.0 | 0.00 | 0.03 | 0.00 | 83 | 1016.3 |
| 20260508024137 | 16 | 90 | 0.0 | 0.0 | 0.00 | 0.03 | 0.00 | 83 | 1016.3 |
| 20260508023631 | 16 | 90 | 0.0 | 0.0 | 0.00 | 0.03 | 0.00 | 83 | 1016.3 |
| 20260508023125 | 16 | 90 | 0.0 | 0.0 | 0.00 | 0.03 | 0.00 | 83 | 1016.2 |
| 20260508022619 | 16 | 90 | 0.0 | 0.0 | 0.00 | 0.03 | 0.00 | 83 | 1016.1 |
| 20260508022113 | 16 | 90 | 0.0 | 0.0 | 0.00 | 0.03 | 0.00 | 83 | 1016.2 |
| 20260508021607 | 16 | 90 | 0.0 | 0.0 | 0.00 | 0.03 | 0.00 | 83 | 1016.1 |
| 20260508021541 | 16 | 90 | 0.0 | 0.0 | 0.00 | 0.03 | 0.00 | 84 | 1015.9 |
| 20260508020555 | 16 | 90 | 0.0 | 0.0 | 0.00 | 0.03 | 0.00 | 84 | 1016.0 |
| 20260508020049 | 16 | 90 | 0.0 | 0.0 | 0.00 | 0.03 | 0.00 | 83 | 1016.1 |
| 20260508015809 | 16 | 90 | 0.0 | 1.6 | 0.00 | 0.03 | 0.00 | 82 | 1016.0 |
| 20260508015309 | 16 | 90 | 0.0 | 3.2 | 0.00 | 0.03 | 0.00 | 82 | 1016.0 |
| 20260508014546 | 16 | 90 | 0.0 | 3.2 | 0.00 | 0.03 | 0.00 | 82 | 1016.1 |
| 20260508014043 | 16 | 90 | 0.0 | 0.0 | 0.00 | 0.03 | 0.00 | 82 | 1016.1 |
| 20260508013543 | 16 | 90 | 0.0 | 0.0 | 0.00 | 0.03 | 0.00 | 81 | 1016.1 |
| 20260508013043 | 16 | 90 | 0.0 | 0.0 | 0.00 | 0.03 | 0.00 | 81 | 1016.2 |
| 20260508012543 | 16 | 90 | 0.0 | 0.0 | 0.00 | 0.03 | 0.00 | 81 | 1016.3 |
| 20260508012039 | 16 | 90 | 0.0 | 0.0 | 0.00 | 0.03 | 0.00 | 81 | 1016.2 |
| 20260508011539 | 16 | 90 | 0.0 | 0.0 | 0.00 | 0.03 | 0.00 | 81 | 1016.3 |
| 20260508011039 | 16 | 90 | 0.0 | 0.0 | 0.00 | 0.03 | 0.00 | 80 | 1016.4 |
| 20260508010537 | 16 | 90 | 0.0 | 0.0 | 0.00 | 0.03 | 0.00 | 80 | 1016.5 |
| 20260508010035 | 16 | 90 | 0.0 | 0.0 | 0.00 | 0.03 | 0.00 | 81 | 1016.6 |
| 20260508005533 | 16 | 90 | 0.0 | 0.0 | 0.00 | 0.03 | 0.00 | 81 | 1016.5 |
| 20260508005033 | 16 | 90 | 0.0 | 0.0 | 0.00 | 0.03 | 0.00 | 81 | 1016.6 |
| 20260508004533 | 16 | 90 | 0.0 | 0.0 | 0.00 | 0.03 | 0.00 | 81 | 1016.6 |
| 20260508004253 | 16 | 90 | 0.0 | 0.0 | 0.00 | 0.03 | 0.00 | 81 | 1016.7 |
| 20260508003528 | 16 | 90 | 0.0 | 0.0 | 0.00 | 0.03 | 0.00 | 81 | 1016.9 |
| 20260508003029 | 16 | 90 | 0.0 | 1.6 | 0.00 | 0.03 | 0.00 | 81 | 1016.9 |
| 20260508002753 | 16 | 90 | 0.0 | 1.6 | 0.00 | 0.03 | 0.00 | 82 | 1016.7 |
| 20260508002022 | 16 | 90 | 0.0 | 0.0 | 0.00 | 0.03 | 0.00 | 82 | 1016.7 |
| 20260508001517 | 16 | 90 | 0.0 | 0.0 | 0.00 | 0.03 | 0.00 | 82 | 1016.9 |
| 20260508001011 | 16 | 90 | 0.0 | 0.0 | 0.00 | 0.03 | 0.00 | 82 | 1016.9 |
| 20260508000504 | 16 | 90 | 0.0 | 0.0 | 0.00 | 0.03 | 0.00 | 82 | 1017.0 |
| 20260507235958 | 16 | 90 | 0.0 | 0.0 | 0.00 | 0.03 | 0.00 | 82 | 1017.0 |
| 20260507235454 | 16 | 90 | 0.0 | 0.0 | 0.00 | 0.03 | 0.00 | 81 | 1017.0 |
| 20260507234946 | 16 | 90 | 0.0 | 0.0 | 0.00 | 0.03 | 0.00 | 81 | 1017.1 |
| 20260507234441 | 16 | 90 | 0.0 | 1.6 | 0.00 | 0.03 | 0.00 | 81 | 1017.1 |
| 20260507233935 | 16 | 90 | 0.0 | 1.6 | 0.00 | 0.03 | 0.00 | 81 | 1017.1 |
| 20260507233435 | 16 | 90 | 0.0 | 1.6 | 0.00 | 0.03 | 0.00 | 81 | 1017.1 |
| 20260507233202 | 17 | 90 | 0.0 | 1.6 | 0.00 | 0.03 | 0.00 | 81 | 1017.1 |
| 20260507232430 | 17 | 90 | 0.0 | 1.6 | 0.00 | 0.03 | 0.00 | 81 | 1017.2 |
| 20260507231929 | 17 | 90 | 0.0 | 1.6 | 0.00 | 0.03 | 0.00 | 81 | 1017.3 |
| 20260507231426 | 17 | 90 | 0.0 | 1.6 | 0.00 | 0.03 | 0.00 | 81 | 1017.3 |
| 20260507230927 | 16 | 90 | 0.0 | 0.0 | 0.00 | 0.03 | 0.00 | 81 | 1017.3 |
| 20260507230427 | 16 | 90 | 0.0 | 0.0 | 0.00 | 0.03 | 0.00 | 81 | 1017.4 |
| 20260507230145 | 17 | 90 | 0.0 | 0.0 | 0.00 | 0.03 | 0.00 | 81 | 1017.4 |
| 20260507225423 | 17 | 90 | 0.0 | 0.0 | 0.00 | 0.03 | 0.00 | 80 | 1017.5 |
| 20260507224922 | 17 | 90 | 0.0 | 0.0 | 0.00 | 0.03 | 0.00 | 80 | 1017.5 |
| 20260507224423 | 17 | 90 | 0.0 | 0.0 | 0.00 | 0.03 | 0.00 | 80 | 1017.6 |
| 20260507223920 | 17 | 90 | 0.0 | 0.0 | 0.00 | 0.03 | 0.00 | 80 | 1017.7 |
| 20260507223419 | 17 | 90 | 0.0 | 0.0 | 0.00 | 0.03 | 0.00 | 79 | 1017.8 |
| 20260507222919 | 17 | 90 | 0.0 | 0.0 | 0.00 | 0.03 | 0.00 | 79 | 1017.9 |
| 20260507222419 | 17 | 90 | 0.0 | 0.0 | 0.00 | 0.03 | 0.00 | 79 | 1017.9 |
| 20260507221917 | 17 | 90 | 0.0 | 0.0 | 0.00 | 0.03 | 0.00 | 79 | 1017.8 |
| 20260507221632 | 17 | 90 | 0.0 | 0.0 | 0.00 | 0.03 | 0.00 | 79 | 1017.8 |
| 20260507220913 | 17 | 90 | 0.0 | 0.0 | 0.00 | 0.03 | 0.00 | 79 | 1017.8 |
| 20260507220413 | 17 | 90 | 0.0 | 0.0 | 0.00 | 0.03 | 0.00 | 79 | 1017.7 |
| 20260507215913 | 17 | 90 | 0.0 | 0.0 | 0.00 | 0.03 | 0.00 | 78 | 1017.7 |
| 20260507215407 | 17 | 90 | 0.0 | 0.0 | 0.00 | 0.03 | 0.00 | 78 | 1017.7 |
| 20260507215121 | 17 | 90 | 0.0 | 0.0 | 0.00 | 0.03 | 0.00 | 78 | 1017.7 |
| 20260507214354 | 17 | 90 | 0.0 | 0.0 | 0.00 | 0.03 | 0.00 | 78 | 1017.6 |
| 20260507213854 | 17 | 90 | 0.0 | 0.0 | 0.00 | 0.03 | 0.00 | 78 | 1017.7 |
| 20260507213353 | 17 | 90 | 0.0 | 0.0 | 0.00 | 0.03 | 0.00 | 78 | 1017.6 |
| 20260507213113 | 17 | 90 | 0.0 | 0.0 | 0.00 | 0.03 | 0.00 | 78 | 1017.7 |
| 20260507212349 | 17 | 90 | 0.0 | 0.0 | 0.00 | 0.03 | 0.00 | 78 | 1017.7 |
| 20260507211849 | 17 | 90 | 0.0 | 0.0 | 0.00 | 0.03 | 0.00 | 77 | 1017.7 |
| 20260507211349 | 17 | 90 | 0.0 | 0.0 | 0.00 | 0.03 | 0.00 | 77 | 1017.8 |
| 20260507210849 | 17 | 90 | 0.0 | 0.0 | 0.00 | 0.03 | 0.00 | 77 | 1017.8 |
| 20260507210836 | 17 | 90 | 0.0 | 0.0 | 0.00 | 0.03 | 0.00 | 77 | 1017.7 |
| 20260507205847 | 17 | 90 | 0.0 | 0.0 | 0.00 | 0.03 | 0.03 | 76 | 1017.7 |
| 20260507205603 | 17 | 90 | 0.0 | 0.0 | 0.00 | 0.03 | 0.03 | 76 | 1017.6 |
| 20260507204845 | 17 | 90 | 0.0 | 0.0 | 0.00 | 0.03 | 0.03 | 75 | 1017.6 |
| 20260507204343 | 17 | 90 | 0.0 | 0.0 | 0.00 | 0.03 | 0.03 | 75 | 1017.6 |
| 20260507203840 | 18 | 90 | 0.0 | 0.0 | 0.00 | 0.03 | 0.03 | 75 | 1017.6 |
| 20260507203339 | 18 | 90 | 0.0 | 0.0 | 0.00 | 0.03 | 0.03 | 74 | 1017.5 |
| 20260507202837 | 18 | 90 | 0.0 | 3.2 | 0.00 | 0.03 | 0.03 | 74 | 1017.6 |
| 20260507202335 | 18 | 90 | 1.6 | 3.2 | 0.00 | 0.03 | 0.03 | 74 | 1017.5 |
| 20260507201833 | 18 | 90 | 1.6 | 4.8 | 0.00 | 0.03 | 0.03 | 74 | 1017.5 |
| 20260507201551 | 18 | 90 | 1.6 | 4.8 | 0.00 | 0.03 | 0.03 | 74 | 1017.5 |
| 20260507200831 | 18 | 90 | 0.0 | 3.2 | 0.00 | 0.03 | 0.03 | 74 | 1017.5 |
| 20260507200331 | 18 | 90 | 0.0 | 3.2 | 0.00 | 0.03 | 0.03 | 74 | 1017.6 |
| 20260507195829 | 18 | 90 | 0.0 | 3.2 | 0.00 | 0.03 | 0.03 | 74 | 1017.5 |
| 20260507195329 | 18 | 89 | 0.0 | 0.0 | 0.00 | 0.03 | 0.03 | 75 | 1017.5 |
| 20260507194829 | 18 | 89 | 0.0 | 0.0 | 0.00 | 0.03 | 0.03 | 75 | 1017.6 |
| 20260507194326 | 18 | 89 | 0.0 | 0.0 | 0.00 | 0.03 | 0.03 | 74 | 1017.7 |
| 20260507193825 | 18 | 89 | 0.0 | 0.0 | 0.00 | 0.03 | 0.03 | 74 | 1017.7 |
| 20260507193325 | 18 | 89 | 0.0 | 0.0 | 0.00 | 0.03 | 0.03 | 73 | 1017.6 |
| 20260507192825 | 18 | 89 | 0.0 | 0.0 | 0.00 | 0.03 | 0.03 | 73 | 1017.5 |
| 20260507192325 | 18 | 89 | 0.0 | 0.0 | 0.00 | 0.03 | 0.03 | 73 | 1017.5 |
| 20260507192039 | 18 | 89 | 0.0 | 0.0 | 0.00 | 0.03 | 0.03 | 72 | 1017.5 |
| 20260507191321 | 18 | 89 | 0.0 | 1.6 | 0.00 | 0.03 | 0.03 | 71 | 1017.6 |
| 20260507190815 | 18 | 89 | 0.0 | 3.2 | 0.00 | 0.03 | 0.03 | 70 | 1017.5 |
| 20260507190309 | 18 | 89 | 0.0 | 3.2 | 0.00 | 0.03 | 0.03 | 70 | 1017.6 |
| 20260507185806 | 18 | 89 | 0.0 | 0.0 | 0.00 | 0.03 | 0.03 | 70 | 1017.6 |
| 20260507185307 | 19 | 89 | 0.0 | 3.2 | 0.00 | 0.03 | 0.03 | 69 | 1017.6 |
| 20260507184805 | 19 | 89 | 1.6 | 4.8 | 0.00 | 0.03 | 0.03 | 69 | 1017.5 |
| 20260507184303 | 19 | 89 | 1.6 | 4.8 | 0.00 | 0.03 | 0.03 | 69 | 1017.4 |
| 20260507183803 | 19 | 71 | 0.0 | 3.2 | 0.00 | 0.03 | 0.03 | 68 | 1017.4 |
| 20260507183303 | 19 | 212 | 0.0 | 3.2 | 0.00 | 0.03 | 0.03 | 68 | 1017.4 |
| 20260507182803 | 19 | 212 | 0.0 | 1.6 | 0.00 | 0.03 | 0.03 | 68 | 1017.4 |
| 20260507182306 | 19 | 212 | 0.0 | 1.6 | 0.00 | 0.03 | 0.03 | 68 | 1017.3 |
| 20260507181803 | 19 | 212 | 0.0 | 1.6 | 0.00 | 0.03 | 0.03 | 68 | 1017.3 |
| 20260507181300 | 19 | 212 | 0.0 | 1.6 | 0.00 | 0.03 | 0.03 | 68 | 1017.2 |
| 20260507180801 | 19 | 212 | 0.0 | 1.6 | 0.00 | 0.03 | 0.03 | 68 | 1017.2 |
| 20260507180301 | 19 | 212 | 0.0 | 1.6 | 0.00 | 0.03 | 0.03 | 68 | 1017.1 |
| 20260507180020 | 19 | 212 | 0.0 | 1.6 | 0.00 | 0.03 | 0.03 | 68 | 1017.1 |
| 20260507175301 | 19 | 212 | 0.0 | 3.2 | 0.00 | 0.03 | 0.03 | 67 | 1017.1 |
| 20260507174757 | 19 | 212 | 1.6 | 3.2 | 0.00 | 0.03 | 0.03 | 67 | 1017.3 |
| 20260507174256 | 19 | 212 | 1.6 | 4.8 | 0.00 | 0.03 | 0.03 | 67 | 1017.2 |
| 20260507173757 | 19 | 212 | 1.6 | 4.8 | 0.00 | 0.03 | 0.03 | 67 | 1017.0 |
| 20260507173257 | 19 | 213 | 1.6 | 4.8 | 0.00 | 0.03 | 0.03 | 66 | 1017.0 |
| 20260507172756 | 19 | 105 | 1.6 | 6.4 | 0.00 | 0.03 | 0.03 | 66 | 1016.7 |
| 20260507172257 | 19 | 98 | 1.6 | 6.4 | 0.00 | 0.03 | 0.03 | 67 | 1016.4 |
| 20260507171756 | 19 | 90 | 1.6 | 6.4 | 0.00 | 0.03 | 0.03 | 67 | 1016.5 |
| 20260507171257 | 19 | 90 | 4.8 | 8.0 | 0.00 | 0.03 | 0.03 | 67 | 1016.6 |
| 20260507170757 | 20 | 103 | 3.2 | 8.0 | 0.00 | 0.03 | 0.03 | 68 | 1016.6 |
| 20260507170257 | 20 | 113 | 3.2 | 8.0 | 0.00 | 0.03 | 0.03 | 68 | 1016.9 |
| 20260507165756 | 20 | 105 | 3.2 | 8.0 | 0.00 | 0.03 | 0.03 | 68 | 1017.1 |
| 20260507165257 | 20 | 105 | 1.6 | 4.8 | 0.00 | 0.03 | 0.03 | 67 | 1017.2 |
| 20260507164756 | 20 | 205 | 1.6 | 4.8 | 0.00 | 0.03 | 0.03 | 67 | 1017.4 |
| 20260507164257 | 20 | 209 | 0.0 | 4.8 | 0.00 | 0.03 | 0.03 | 66 | 1017.4 |
| 20260507163757 | 20 | 167 | 0.0 | 3.2 | 0.00 | 0.03 | 0.03 | 66 | 1017.4 |
| 20260507163256 | 20 | 153 | 0.0 | 1.6 | 0.00 | 0.03 | 0.03 | 66 | 1017.3 |
| 20260507162756 | 20 | 153 | 0.0 | 0.0 | 0.00 | 0.03 | 0.03 | 66 | 1017.2 |
| 20260507162257 | 20 | 153 | 0.0 | 1.6 | 0.00 | 0.03 | 0.03 | 68 | 1017.3 |
| 20260507162235 | 20 | 153 | 0.0 | 3.2 | 0.00 | 0.03 | 0.03 | 68 | 1017.3 |
| 20260507161244 | 20 | 157 | 1.6 | 6.4 | 0.00 | 0.03 | 0.03 | 67 | 1017.3 |
| 20260507160738 | 20 | 151 | 3.2 | 8.0 | 0.00 | 0.03 | 0.03 | 68 | 1017.4 |
| 20260507160232 | 20 | 196 | 3.2 | 8.0 | 0.00 | 0.03 | 0.03 | 67 | 1017.4 |
| 20260507155726 | 20 | 115 | 1.6 | 8.0 | 0.00 | 0.03 | 0.03 | 67 | 1017.5 |
| 20260507155220 | 20 | 138 | 1.6 | 4.8 | 0.00 | 0.03 | 0.03 | 67 | 1017.3 |
| 20260507154714 | 20 | 130 | 1.6 | 4.8 | 0.00 | 0.03 | 0.03 | 65 | 1017.3 |
| 20260507154208 | 20 | 129 | 0.0 | 3.2 | 0.00 | 0.03 | 0.03 | 65 | 1017.3 |
| 20260507153922 | 20 | 130 | 1.6 | 3.2 | 0.00 | 0.03 | 0.03 | 66 | 1017.5 |
| 20260507153156 | 20 | 129 | 3.2 | 4.8 | 0.00 | 0.03 | 0.03 | 68 | 1017.5 |
| 20260507152651 | 20 | 189 | 1.6 | 4.8 | 0.00 | 0.03 | 0.03 | 67 | 1017.7 |
| 20260507152143 | 20 | 217 | 1.6 | 6.4 | 0.00 | 0.03 | 0.03 | 65 | 1017.6 |
| 20260507151638 | 20 | 204 | 1.6 | 6.4 | 0.00 | 0.03 | 0.03 | 65 | 1017.7 |
| 20260507151132 | 20 | 237 | 1.6 | 6.4 | 0.00 | 0.03 | 0.03 | 65 | 1017.6 |
| 20260507150626 | 20 | 244 | 1.6 | 6.4 | 0.00 | 0.03 | 0.03 | 65 | 1017.7 |
| 20260507150119 | 20 | 232 | 1.6 | 6.4 | 0.00 | 0.03 | 0.03 | 65 | 1017.6 |
| 20260507145614 | 20 | 246 | 3.2 | 8.0 | 0.00 | 0.03 | 0.03 | 65 | 1017.5 |
| 20260507145108 | 20 | 254 | 1.6 | 8.0 | 0.00 | 0.03 | 0.03 | 65 | 1017.5 |
| 20260507144601 | 20 | 210 | 1.6 | 4.8 | 0.00 | 0.03 | 0.03 | 65 | 1017.6 |
| 20260507144056 | 20 | 218 | 3.2 | 8.0 | 0.00 | 0.03 | 0.03 | 65 | 1017.7 |
| 20260507143550 | 20 | 264 | 3.2 | 9.7 | 0.00 | 0.03 | 0.03 | 64 | 1017.7 |
| 20260507143043 | 20 | 240 | 3.2 | 8.0 | 0.00 | 0.03 | 0.03 | 63 | 1017.6 |
| 20260507142538 | 20 | 257 | 4.8 | 8.0 | 0.00 | 0.03 | 0.03 | 64 | 1017.6 |
| 20260507142524 | 20 | 252 | 4.8 | 8.0 | 0.00 | 0.03 | 0.03 | 62 | 1017.6 |
| 20260507141525 | 20 | 259 | 6.4 | 8.0 | 0.00 | 0.03 | 0.03 | 61 | 1017.6 |
| 20260507141235 | 20 | 248 | 4.8 | 8.0 | 0.00 | 0.03 | 0.03 | 61 | 1017.5 |
| 20260507140511 | 21 | 266 | 4.8 | 8.0 | 0.00 | 0.03 | 0.03 | 61 | 1017.5 |
| 20260507140006 | 21 | 297 | 4.8 | 8.0 | 0.00 | 0.03 | 0.03 | 62 | 1017.4 |
| 20260507135500 | 20 | 283 | 4.8 | 9.7 | 0.00 | 0.03 | 0.03 | 63 | 1017.4 |
| 20260507134953 | 20 | 266 | 3.2 | 9.7 | 0.00 | 0.03 | 0.03 | 62 | 1017.4 |
| 20260507134447 | 20 | 259 | 4.8 | 8.0 | 0.00 | 0.03 | 0.03 | 66 | 1017.4 |
| 20260507133944 | 20 | 278 | 4.8 | 9.7 | 0.00 | 0.03 | 0.03 | 70 | 1017.4 |
| 20260507133444 | 20 | 238 | 4.8 | 9.7 | 0.00 | 0.03 | 0.03 | 70 | 1017.4 |
| 20260507133300 | 20 | 228 | 3.2 | 8.0 | 0.00 | 0.03 | 0.03 | 70 | 1017.4 |
| 20260507133146 | 20 | 266 | 3.2 | 8.0 | 0.00 | 0.03 | 0.03 | 74 | 1017.3 |
| 20260507131945 | 20 | 292 | 3.2 | 8.0 | 0.00 | 0.03 | 0.03 | 76 | 1017.4 |
| 20260507131442 | 20 | 277 | 4.8 | 8.0 | 0.00 | 0.03 | 0.03 | 75 | 1017.5 |
| 20260507130940 | 19 | 256 | 6.4 | 9.7 | 0.00 | 0.03 | 0.03 | 76 | 1017.6 |
| 20260507130440 | 19 | 250 | 6.4 | 11.3 | 0.00 | 0.03 | 0.03 | 74 | 1017.6 |
| 20260507125942 | 20 | 275 | 4.8 | 11.3 | 0.00 | 0.03 | 0.03 | 72 | 1017.7 |
| 20260507125439 | 20 | 274 | 3.2 | 8.0 | 0.00 | 0.03 | 0.03 | 71 | 1017.7 |
| 20260507124938 | 20 | 269 | 3.2 | 8.0 | 0.00 | 0.03 | 0.03 | 62 | 1017.7 |
| 20260507124434 | 20 | 5 | 1.6 | 8.0 | 0.00 | 0.03 | 0.03 | 63 | 1017.5 |
| 20260507123936 | 20 | 26 | 0.0 | 6.4 | 0.00 | 0.03 | 0.03 | 70 | 1017.4 |
| 20260507123435 | 20 | 110 | 0.0 | 3.2 | 0.00 | 0.03 | 0.03 | 70 | 1017.7 |
| 20260507123153 | 20 | 245 | 1.6 | 4.8 | 0.00 | 0.03 | 0.03 | 72 | 1018.0 |
| 20260507122430 | 20 | 245 | 3.2 | 6.4 | 0.00 | 0.03 | 0.03 | 73 | 1018.2 |
| 20260507121928 | 20 | 245 | 3.2 | 8.0 | 0.00 | 0.03 | 0.03 | 74 | 1018.4 |
| 20260507121426 | 20 | 221 | 3.2 | 8.0 | 0.00 | 0.03 | 0.03 | 73 | 1018.5 |
| 20260507120924 | 19 | 299 | 1.6 | 3.2 | 0.00 | 0.03 | 0.03 | 74 | 1018.6 |
| 20260507120641 | 19 | 299 | 0.0 | 1.6 | 0.00 | 0.03 | 0.03 | 74 | 1018.6 |
| 20260507120412 | 19 | 299 | 0.0 | 4.8 | 0.00 | 0.03 | 0.03 | 74 | 1018.6 |
| 20260507115416 | 19 | 299 | 1.6 | 4.8 | 0.00 | 0.03 | 0.03 | 74 | 1018.6 |
| 20260507114910 | 19 | 299 | 1.6 | 4.8 | 0.03 | 0.03 | 0.03 | 74 | 1018.7 |
| 20260507114636 | 19 | 299 | 3.2 | 6.4 | 0.03 | 0.03 | 0.03 | 74 | 1018.8 |
| 20260507113852 | 19 | 297 | 3.2 | 6.4 | 0.03 | 0.03 | 0.03 | 73 | 1019.0 |
| 20260507113346 | 19 | 278 | 1.6 | 3.2 | 0.03 | 0.03 | 0.03 | 72 | 1018.9 |
| 20260507113100 | 19 | 278 | 1.6 | 1.6 | 0.03 | 0.03 | 0.03 | 72 | 1019.1 |
| 20260507112333 | 19 | 278 | 1.6 | 3.2 | 0.03 | 0.03 | 0.03 | 72 | 1019.2 |
| 20260507111827 | 19 | 278 | 1.6 | 3.2 | 0.03 | 0.03 | 0.03 | 72 | 1019.2 |
| 20260507111322 | 19 | 278 | 0.0 | 1.6 | 0.03 | 0.03 | 0.03 | 73 | 1019.3 |
| 20260507110816 | 19 | 278 | 0.0 | 1.6 | 0.03 | 0.03 | 0.03 | 74 | 1019.3 |
| 20260507110800 | 19 | 278 | 0.0 | 0.0 | 0.03 | 0.03 | 0.03 | 73 | 1019.2 |
| 20260507105812 | 19 | 278 | 0.0 | 3.2 | 0.03 | 0.03 | 0.03 | 73 | 1019.2 |
| 20260507105312 | 19 | 278 | 0.0 | 3.2 | 0.03 | 0.03 | 0.03 | 71 | 1019.1 |
| 20260507104812 | 19 | 278 | 0.0 | 0.0 | 0.00 | 0.00 | 0.00 | 72 | 1019.1 |
| 20260507104312 | 19 | 278 | 0.0 | 1.6 | 0.00 | 0.00 | 0.00 | 71 | 1019.1 |
| 20260507104034 | 19 | 277 | 0.0 | 1.6 | 0.00 | 0.00 | 0.00 | 71 | 1019.1 |
| 20260507103312 | 19 | 274 | 0.0 | 3.2 | 0.00 | 0.00 | 0.00 | 71 | 1019.1 |
| 20260507102810 | 19 | 274 | 1.6 | 3.2 | 0.00 | 0.00 | 0.00 | 69 | 1019.1 |
| 20260507102753 | 19 | 274 | 1.6 | 4.8 | 0.00 | 0.00 | 0.00 | 69 | 1019.2 |
| 20260507101806 | 19 | 274 | 1.6 | 4.8 | 0.00 | 0.00 | 0.00 | 70 | 1019.1 |
| 20260507101753 | 19 | 274 | 1.6 | 4.8 | 0.00 | 0.00 | 0.00 | 71 | 1019.0 |
| 20260507100804 | 19 | 278 | 1.6 | 4.8 | 0.00 | 0.00 | 0.00 | 71 | 1019.1 |
| 20260507100302 | 19 | 233 | 3.2 | 8.0 | 0.00 | 0.00 | 0.00 | 72 | 1019.2 |
| 20260507095802 | 19 | 248 | 4.8 | 9.7 | 0.00 | 0.00 | 0.00 | 72 | 1019.1 |
| 20260507095305 | 19 | 243 | 4.8 | 9.7 | 0.00 | 0.00 | 0.00 | 70 | 1019.2 |
| 20260507094802 | 19 | 271 | 3.2 | 6.4 | 0.00 | 0.00 | 0.00 | 69 | 1019.1 |
| 20260507094302 | 19 | 270 | 3.2 | 8.0 | 0.00 | 0.00 | 0.00 | 68 | 1018.9 |
| 20260507094021 | 19 | 269 | 3.2 | 8.0 | 0.00 | 0.00 | 0.00 | 68 | 1018.8 |
| 20260507093256 | 19 | 269 | 3.2 | 6.4 | 0.00 | 0.00 | 0.00 | 65 | 1018.8 |
| 20260507092754 | 19 | 269 | 3.2 | 6.4 | 0.00 | 0.00 | 0.00 | 64 | 1018.7 |
| 20260507092254 | 20 | 269 | 1.6 | 4.8 | 0.00 | 0.00 | 0.00 | 64 | 1018.5 |
| 20260507091751 | 20 | 269 | 1.6 | 3.2 | 0.00 | 0.00 | 0.00 | 65 | 1018.4 |
| 20260507091510 | 19 | 269 | 1.6 | 3.2 | 0.00 | 0.00 | 0.00 | 66 | 1018.3 |
| 20260507090748 | 19 | 269 | 1.6 | 4.8 | 0.00 | 0.00 | 0.00 | 66 | 1018.2 |
| 20260507090246 | 19 | 269 | 3.2 | 6.4 | 0.00 | 0.00 | 0.00 | 67 | 1018.2 |
| 20260507090014 | 19 | 269 | 1.6 | 6.4 | 0.00 | 0.00 | 0.00 | 67 | 1018.2 |
| 20260507085245 | 19 | 269 | 1.6 | 3.2 | 0.00 | 0.00 | 0.00 | 65 | 1018.1 |
| 20260507085007 | 19 | 269 | 1.6 | 4.8 | 0.00 | 0.00 | 0.00 | 63 | 1018.2 |
| 20260507084501 | 19 | 269 | 3.2 | 6.4 | 0.00 | 0.00 | 0.00 | 62 | 1018.1 |
| 20260507083740 | 19 | 269 | 1.6 | 6.4 | 0.00 | 0.00 | 0.00 | 61 | 1018.1 |
| 20260507083237 | 19 | 281 | 1.6 | 6.4 | 0.00 | 0.00 | 0.00 | 63 | 1018.0 |
| 20260507082737 | 19 | 281 | 1.6 | 6.4 | 0.00 | 0.00 | 0.00 | 65 | 1017.9 |
| 20260507082236 | 19 | 264 | 1.6 | 3.2 | 0.00 | 0.00 | 0.00 | 66 | 1017.9 |
| 20260507081736 | 19 | 263 | 1.6 | 3.2 | 0.00 | 0.00 | 0.00 | 68 | 1017.9 |
| 20260507081234 | 18 | 263 | 1.6 | 4.8 | 0.00 | 0.00 | 0.00 | 69 | 1017.9 |
| 20260507080732 | 18 | 263 | 3.2 | 6.4 | 0.00 | 0.00 | 0.00 | 68 | 1017.8 |
| 20260507080452 | 18 | 255 | 4.8 | 8.0 | 0.00 | 0.00 | 0.00 | 72 | 1017.7 |
| 20260507075728 | 18 | 250 | 4.8 | 8.0 | 0.00 | 0.00 | 0.00 | 72 | 1017.7 |
| 20260507075229 | 18 | 231 | 3.2 | 8.0 | 0.00 | 0.00 | 0.00 | 71 | 1017.6 |
| 20260507074728 | 19 | 278 | 1.6 | 4.8 | 0.00 | 0.00 | 0.00 | 70 | 1017.5 |
| 20260507074229 | 18 | 283 | 1.6 | 3.2 | 0.00 | 0.00 | 0.00 | 70 | 1017.4 |
| 20260507073728 | 18 | 290 | 0.0 | 0.0 | 0.00 | 0.00 | 0.00 | 70 | 1017.4 |
| 20260507073228 | 18 | 290 | 0.0 | 0.0 | 0.00 | 0.00 | 0.00 | 72 | 1017.2 |
| 20260507072728 | 18 | 290 | 0.0 | 3.2 | 0.00 | 0.00 | 0.00 | 73 | 1017.3 |
| 20260507072456 | 18 | 290 | 1.6 | 6.4 | 0.00 | 0.00 | 0.00 | 72 | 1017.3 |
| 20260507071954 | 18 | 290 | 3.2 | 6.4 | 0.00 | 0.00 | 0.00 | 71 | 1017.3 |
| 20260507071226 | 18 | 304 | 1.6 | 6.4 | 0.00 | 0.00 | 0.00 | 71 | 1017.3 |
| 20260507070724 | 18 | 319 | 1.6 | 4.8 | 0.00 | 0.00 | 0.00 | 71 | 1017.3 |
| 20260507070227 | 18 | 10 | 1.6 | 4.8 | 0.00 | 0.00 | 0.00 | 72 | 1017.2 |
| 20260507065724 | 18 | 282 | 1.6 | 4.8 | 0.00 | 0.00 | 0.00 | 73 | 1017.2 |
| 20260507065449 | 18 | 282 | 3.2 | 4.8 | 0.00 | 0.00 | 0.00 | 73 | 1017.4 |
| 20260507065213 | 18 | 266 | 3.2 | 6.4 | 0.00 | 0.00 | 0.00 | 72 | 1017.5 |
| 20260507064226 | 18 | 254 | 3.2 | 6.4 | 0.00 | 0.00 | 0.00 | 72 | 1017.5 |
| 20260507063723 | 18 | 238 | 3.2 | 8.0 | 0.00 | 0.00 | 0.00 | 72 | 1017.5 |
| 20260507063223 | 18 | 287 | 3.2 | 8.0 | 0.00 | 0.00 | 0.00 | 71 | 1017.5 |
| 20260507062715 | 18 | 249 | 4.8 | 11.3 | 0.00 | 0.00 | 0.00 | 71 | 1017.5 |
| 20260507062208 | 18 | 252 | 4.8 | 11.3 | 0.00 | 0.00 | 0.00 | 71 | 1017.6 |
| 20260507061702 | 18 | 278 | 3.2 | 6.4 | 0.00 | 0.00 | 0.00 | 70 | 1017.5 |
| 20260507061157 | 18 | 269 | 3.2 | 8.0 | 0.00 | 0.00 | 0.00 | 71 | 1017.3 |
| 20260507060651 | 18 | 211 | 3.2 | 8.0 | 0.00 | 0.00 | 0.00 | 70 | 1017.3 |
| 20260507060406 | 18 | 262 | 3.2 | 6.4 | 0.00 | 0.00 | 0.00 | 70 | 1017.2 |
| 20260507055638 | 18 | 214 | 1.6 | 6.4 | 0.00 | 0.00 | 0.00 | 70 | 1017.2 |
| 20260507055355 | 18 | 304 | 1.6 | 4.8 | 0.00 | 0.00 | 0.00 | 70 | 1017.0 |
| 20260507054626 | 18 | 304 | 1.6 | 3.2 | 0.00 | 0.00 | 0.00 | 70 | 1017.0 |
| 20260507054121 | 18 | 304 | 1.6 | 4.8 | 0.00 | 0.00 | 0.00 | 71 | 1017.1 |
| 20260507053615 | 18 | 304 | 1.6 | 4.8 | 0.00 | 0.00 | 0.00 | 70 | 1017.0 |
| 20260507053107 | 18 | 304 | 1.6 | 3.2 | 0.00 | 0.00 | 0.00 | 67 | 1017.0 |
| 20260507052602 | 18 | 304 | 0.0 | 3.2 | 0.00 | 0.00 | 0.00 | 67 | 1017.0 |
| 20260507052100 | 19 | 304 | 0.0 | 3.2 | 0.00 | 0.00 | 0.00 | 65 | 1016.9 |
| 20260507051820 | 19 | 304 | 0.0 | 0.0 | 0.00 | 0.00 | 0.00 | 67 | 1016.7 |
| 20260507051059 | 18 | 304 | 0.0 | 0.0 | 0.00 | 0.00 | 0.00 | 68 | 1016.6 |
| 20260507050559 | 18 | 304 | 0.0 | 1.6 | 0.00 | 0.00 | 0.00 | 69 | 1016.7 |
| 20260507050322 | 17 | 304 | 0.0 | 1.6 | 0.00 | 0.00 | 0.00 | 70 | 1016.9 |
| 20260507045556 | 17 | 304 | 0.0 | 1.6 | 0.00 | 0.00 | 0.00 | 69 | 1016.7 |
| 20260507045055 | 17 | 304 | 0.0 | 1.6 | 0.00 | 0.00 | 0.00 | 70 | 1016.9 |
| 20260507044555 | 17 | 304 | 0.0 | 3.2 | 0.00 | 0.00 | 0.00 | 71 | 1016.6 |
| 20260507044314 | 17 | 304 | 0.0 | 3.2 | 0.00 | 0.00 | 0.00 | 72 | 1016.6 |
| 20260507043551 | 17 | 304 | 0.0 | 1.6 | 0.00 | 0.00 | 0.00 | 73 | 1016.6 |